Location: Pensacola
(30.4142°N, 87.2155°W)
Time: 18:03:32
(UTC-05:00)

AO-27 - Pass Details

Date: 07 June 2024
Orbit: 783 x 797 km, 98.8° (Epoch: 21 June)

Event Time Altitude Azimuth Distance (km) Brightness Sun altitude
Exits shadow 21:22:36 26° 159° (SSE) 1,520 8.6 -17.4°
Maximum altitude 21:25:37 79° 76° (ENE) 806 7.6 -17.9°
Drops below altitude 10° 21:30:48 10° 350° (N) 2,349 10.9 -18.7°
Sets 21:33:07 0° 349° (N) 3,279 11.7 -19.1°
